CW8081 Weather Reports


Display with metric or nautical units.
time (UTC)temp
F
wind
direction
speed
MPH
gust
MPH
rain 1hr
in
rain 24hr
in
rain mn
in
humidity
%
barometer
mb
20220123061604 32 354 5.0 12.0 0.00 0.00 0.00 59 1023.5
20220123061104 32 353 4.0 9.0 0.00 0.00 0.00 59 1023.3
20220123060604 32 10 3.0 10.0 0.00 0.00 0.00 59 1023.3
20220123053104 32 312 5.0 12.0 0.00 0.00 0.00 60 1023.0
20220123051604 32 337 5.0 15.0 0.00 0.00 0.00 59 1022.7
20220123051105 32 2 5.0 9.0 0.00 0.00 0.00 59 1022.7
20220123044604 32 0 4.0 8.0 0.00 0.00 0.00 59 1022.7
20220123041104 32 355 3.0 9.0 0.00 0.00 0.00 59 1022.7
20220123034104 32 355 4.0 7.0 0.00 0.00 0.00 60 1022.4
20220123033104 32 340 4.0 12.0 0.00 0.00 0.00 60 1022.3
20220123031104 32 13 2.0 7.0 0.00 0.00 0.00 61 1022.3
20220123030604 32 43 3.0 7.0 0.00 0.00 0.00 61 1022.3
20220123030104 32 41 3.0 8.0 0.00 0.00 0.00 61 1022.3
20220123024604 32 337 3.0 7.0 0.00 0.00 0.00 61 1022.3
20220123023104 32 20 5.0 12.0 0.00 0.00 0.00 60 1022.3
20220123021604 33 336 5.0 9.0 0.00 0.00 0.00 60 1022.0
20220123020604 33 348 6.0 9.0 0.00 0.00 0.00 60 1022.0
20220123014605 33 344 8.0 20.0 0.00 0.00 0.00 60 1021.7
20220123014104 33 321 9.0 20.0 0.00 0.00 0.00 60 1021.7
20220123013604 33 347 9.0 18.0 0.00 0.00 0.00 60 1021.7
20220123011604 33 346 7.0 20.0 0.00 0.00 0.00 59 1021.5
20220123011104 34 358 10.0 20.0 0.00 0.00 0.00 59 1021.5
20220123010603 34 1 6.0 16.0 0.00 0.00 0.00 59 1021.5
20220123010104 34 337 7.0 24.0 0.00 0.00 0.00 59 1021.5
20220123003604 34 5 10.0 20.0 0.00 0.00 0.00 59 1021.2
20220123003104 34 341 7.0 24.0 0.00 0.00 0.00 59 1021.2
20220123000604 34 322 9.0 20.0 0.00 0.00 0.00 59 1020.8
20220123000104 34 327 5.0 20.0 0.00 0.00 0.00 59 1020.8
20220122234104 35 339 6.0 12.0 0.00 0.00 0.00 59 1020.3
20220122233604 35 327 5.0 15.0 0.00 0.00 0.00 59 1020.3
20220122233103 35 351 7.0 16.0 0.00 0.00 0.00 60 1020.3
20220122231603 35 349 5.0 14.0 0.00 0.00 0.00 61 1020.3
20220122224608 35 317 6.0 20.0 0.00 0.00 0.00 64 1020.3
20220122224108 36 333 9.0 22.0 0.00 0.00 0.00 65 1020.3
20220122221607 36 354 7.0 16.0 0.00 0.00 0.00 64 1019.9
20220122221110 36 346 7.0 20.0 0.00 0.00 0.00 64 1019.9
20220122220108 36 349 9.0 20.0 0.00 0.00 0.00 64 1019.8
20220122213609 36 353 10.0 22.0 0.00 0.00 0.00 63 1019.6
20220122213108 36 348 7.0 26.0 0.00 0.00 0.00 63 1019.6
20220122211608 37 334 8.0 18.0 0.00 0.00 0.00 61 1019.3
20220122211108 37 329 9.0 21.0 0.00 0.00 0.00 61 1019.3
20220122210609 37 334 7.0 16.0 0.00 0.00 0.00 60 1019.3
20220122204608 37 330 4.0 15.0 0.00 0.00 0.00 58 1019.2
20220122204108 37 343 6.0 20.0 0.00 0.00 0.00 57 1019.2
20220122203108 37 329 3.0 9.0 0.00 0.00 0.00 56 1019.2
20220122200609 38 334 4.0 8.0 0.00 0.00 0.00 54 1019.2
20220122200108 38 353 6.0 12.0 0.00 0.00 0.00 53 1019.2
20220122194608 38 0 4.0 9.0 0.00 0.00 0.00 53 1018.7
20220122194108 38 17 5.0 10.0 0.00 0.00 0.00 53 1018.7
20220122193608 38 3 5.0 9.0 0.00 0.00 0.00 53 1018.7
20220122193108 38 32 6.0 12.0 0.00 0.00 0.00 53 1018.7
20220122191609 38 358 5.0 8.0 0.00 0.00 0.00 53 1018.3
20220122190108 38 7 6.0 12.0 0.00 0.00 0.00 51 1018.3
20220122184608 39 355 5.0 7.0 0.00 0.00 0.00 51 1018.1
20220122183108 38 0 3.0 10.0 0.00 0.00 0.00 50 1018.0
20220122180608 38 36 5.0 8.0 0.00 0.00 0.00 48 1018.1
20220122180108 39 16 5.0 10.0 0.00 0.00 0.00 48 1018.1
20220122174608 39 358 5.0 8.0 0.00 0.00 0.00 46 1018.0
20220122174109 39 17 5.0 10.0 0.00 0.00 0.00 45 1018.0
20220122173608 39 18 5.0 10.0 0.00 0.00 0.00 45 1017.9
20220122173108 39 24 6.0 15.0 0.00 0.00 0.00 45 1017.8
20220122171608 39 29 5.0 10.0 0.00 0.00 0.00 45 1017.8
20220122171108 39 31 5.0 9.0 0.00 0.00 0.00 44 1017.7
20220122164608 39 35 4.0 9.0 0.00 0.00 0.00 44 1017.6
20220122164108 39 35 3.0 6.0 0.00 0.00 0.00 44 1017.6
20220122163608 39 17 3.0 8.0 0.00 0.00 0.00 44 1017.6
20220122163108 39 328 4.0 9.0 0.00 0.00 0.00 44 1017.4
20220122161108 39 330 3.0 8.0 0.00 0.00 0.00 44 1017.4
20220122160608 39 301 4.0 6.0 0.00 0.00 0.00 44 1017.4
20220122160108 39 313 5.0 8.0 0.00 0.00 0.00 43 1017.4
20220122154608 39 6 3.0 7.0 0.00 0.00 0.00 43 1017.2
20220122154108 39 355 3.0 10.0 0.00 0.00 0.00 43 1017.2
20220122153608 39 27 5.0 7.0 0.00 0.00 0.00 43 1017.2
20220122151108 40 24 8.0 13.0 0.00 0.00 0.00 42 1017.4
20220122150608 40 8 7.0 12.0 0.00 0.00 0.00 42 1017.4
20220122143608 40 294 6.0 21.0 0.00 0.00 0.00 42 1017.4
20220122141108 40 331 6.0 10.0 0.00 0.00 0.00 42 1017.4
20220122140608 40 322 6.0 13.0 0.00 0.00 0.00 41 1017.4
20220122140109 40 321 5.0 13.0 0.00 0.00 0.00 41 1017.4
20220122134108 40 292 4.0 14.0 0.00 0.00 0.00 41 1017.4
20220122133107 40 323 5.0 14.0 0.00 0.00 0.00 42 1017.5
20220122131608 40 342 9.0 15.0 0.00 0.00 0.00 41 1017.4
20220122124608 40 322 7.0 18.0 0.00 0.00 0.00 41 1017.4
20220122124108 40 330 6.0 14.0 0.00 0.00 0.00 41 1017.5
20220122121108 40 341 8.0 20.0 0.00 0.00 0.00 41 1017.7
20220122120609 40 320 9.0 16.0 0.00 0.00 0.00 41 1017.7
20220122120107 40 325 9.0 21.0 0.00 0.00 0.00 41 1017.7
20220122114608 40 332 8.0 20.0 0.00 0.00 0.00 41 1017.8
20220122113609 40 336 6.0 13.0 0.00 0.00 0.00 41 1017.9
20220122113108 40 334 9.0 26.0 0.00 0.00 0.00 40 1017.9
20220122111108 40 329 11.0 25.0 0.00 0.00 0.00 40 1018.8
20220122110108 39 316 9.0 20.0 0.00 0.00 0.00 43 1018.8
20220122104107 39 349 10.0 18.0 0.00 0.00 0.00 43 1018.8
20220122101608 38 347 10.0 24.0 0.00 0.00 0.00 44 1019.0
20220122094608 38 331 10.0 20.0 0.00 0.00 0.00 45 1019.6
20220122093608 38 318 7.0 14.0 0.00 0.00 0.00 45 1019.9
20220122093108 38 346 10.0 23.0 0.00 0.00 0.00 45 1019.9
20220122091607 37 333 9.0 21.0 0.00 0.00 0.00 45 1020.1
20220122091108 37 334 7.0 15.0 0.00 0.00 0.00 45 1020.1
20220122090108 37 327 5.0 23.0 0.00 0.00 0.00 47 1020.1
20220122084108 36 12 5.0 13.0 0.00 0.00 0.00 48 1020.0
20220122083608 36 28 7.0 16.0 0.00 0.00 0.00 48 1020.4
20220122081608 35 350 6.0 12.0 0.00 0.00 0.00 50 1020.4
20220122081108 34 353 6.0 12.0 0.00 0.00 0.00 50 1020.6
20220122080108 34 337 7.0 12.0 0.00 0.00 0.00 51 1020.6
20220122074107 33 350 7.0 14.0 0.00 0.00 0.00 52 1020.6
20220122073608 33 358 7.0 12.0 0.00 0.00 0.00 53 1020.6
20220122071608 32 24 5.0 16.0 0.00 0.00 0.00 54 1020.6
20220122071107 32 23 5.0 12.0 0.00 0.00 0.00 55 1020.7
20220122070608 32 10 5.0 14.0 0.00 0.00 0.00 55 1020.7
20220122063608 31 30 5.0 9.0 0.00 0.00 0.00 56 1020.9